Location: Colossi of Memnon
(25.7167°N, 32.6167°E)
Time: 02:32:09
(UTC+00:00)

ATLAS 2AS CENTAUR R/B - Pass Details

Date: 05 March 2021
Orbit: 949 x 1263 km, 63.7° (Epoch: 20 April)

Event Time Altitude Azimuth Distance (km) Brightness Sun altitude
Rises 03:41:41 0° 224° (SW) 4,132 5.4 -6.9°
Reaches altitude 10° 03:44:34 10° 231° (SW) 3,196 4.8 -6.3°
Maximum altitude 03:51:55 45° 301° (WNW) 1,658 3.4 -4.6°
Drops below altitude 10° 03:59:25 10° 13° (NNE) 3,237 5.3 -3.0°
Sets 04:02:22 0° 19° (NNE) 4,189 6.0 -2.3°
